Time,TemperatureF,DewpointF,PressureIn,WindDirection,WindDirectionDegrees,WindSpeedMPH,WindSpeedGustMPH,Humidity,HourlyPrecipIn,Conditions,Clouds,dailyrainin,SoftwareType,DateUTC
2013-02-21 00:01:00,21.0,8.0,-100.00,East,95,11.0,16.0,54,0.00,,,-99.99,,2013-02-21 06:01:00,
2013-02-21 00:11:00,21.0,8.0,-100.00,East,100,11.0,17.0,54,0.00,,,-99.99,,2013-02-21 06:11:00,
2013-02-21 00:21:00,21.0,8.0,-100.00,East,95,7.0,16.0,54,0.00,,,-99.99,,2013-02-21 06:21:00,
2013-02-21 00:31:00,21.0,8.0,-100.00,East,90,9.0,15.0,55,0.00,,,-99.99,,2013-02-21 06:31:00,
2013-02-21 00:41:00,21.0,8.0,-100.00,East,90,7.0,14.0,55,0.00,,,-99.99,,2013-02-21 06:41:00,
2013-02-21 00:51:00,21.0,8.0,-100.00,East,90,10.0,14.0,55,0.00,,,-99.99,,2013-02-21 06:51:00,
2013-02-21 01:01:00,21.0,8.0,-100.00,East,90,10.0,14.0,55,0.00,,,-99.99,,2013-02-21 07:01:00,
2013-02-21 01:11:00,21.0,8.0,-100.00,East,100,11.0,14.0,55,0.00,,,-99.99,,2013-02-21 07:11:00,
2013-02-21 01:21:00,21.0,8.0,-100.00,ESE,105,7.0,14.0,56,0.00,,,-99.99,,2013-02-21 07:21:00,
2013-02-21 01:32:00,21.0,8.0,-100.00,ESE,105,8.0,13.0,56,0.00,,,-99.99,,2013-02-21 07:32:00,
2013-02-21 01:42:00,21.0,8.0,-100.00,ESE,110,7.0,13.0,57,0.00,,,-99.99,,2013-02-21 07:42:00,
2013-02-21 01:52:00,21.0,8.0,-100.00,ESE,110,8.0,13.0,57,0.00,,,-99.99,,2013-02-21 07:52:00,
2013-02-21 02:01:00,21.0,8.0,-100.00,ESE,110,8.0,13.0,57,0.00,,,-99.99,,2013-02-21 08:01:00,
2013-02-21 02:11:00,21.0,9.0,-100.00,ESE,110,7.0,12.0,58,0.00,,,-99.99,,2013-02-21 08:11:00,
2013-02-21 02:21:00,20.0,9.0,-100.00,East,100,7.0,11.0,59,0.00,,,-99.99,,2013-02-21 08:21:00,
2013-02-21 02:32:00,20.0,9.0,-100.00,ESE,105,10.0,12.0,59,0.00,,,-99.99,,2013-02-21 08:32:00,
2013-02-21 02:41:00,20.0,9.0,-100.00,ESE,110,6.0,12.0,61,0.00,,,-99.99,,2013-02-21 08:41:00,
2013-02-21 02:52:00,20.0,9.0,-100.00,East,95,7.0,11.0,61,0.00,,,-99.99,,2013-02-21 08:52:00,
2013-02-21 03:01:00,20.0,9.0,-100.00,East,95,7.0,11.0,61,0.00,,,-99.99,,2013-02-21 09:01:00,
2013-02-21 03:11:00,20.0,9.0,-100.00,East,90,8.0,12.0,62,0.00,,,-99.99,,2013-02-21 09:11:00,
2013-02-21 03:22:00,20.0,9.0,-100.00,East,100,9.0,14.0,62,0.00,,,-99.99,,2013-02-21 09:22:00,
2013-02-21 03:31:00,20.0,10.0,-100.00,East,80,9.0,13.0,63,0.00,,,-99.99,,2013-02-21 09:31:00,
2013-02-21 03:41:00,20.0,10.0,-100.00,East,80,9.0,13.0,63,0.00,,,-99.99,,2013-02-21 09:41:00,
2013-02-21 03:51:00,20.0,10.0,-100.00,East,90,11.0,16.0,65,0.00,,,-99.99,,2013-02-21 09:51:00,
2013-02-21 04:01:00,20.0,10.0,-100.00,East,90,11.0,16.0,65,0.00,,,-99.99,,2013-02-21 10:01:00,
2013-02-21 04:11:00,20.0,10.0,-100.00,East,90,10.0,20.0,65,0.00,,,-99.99,,2013-02-21 10:11:00,
2013-02-21 04:21:00,20.0,10.0,-100.00,East,80,11.0,17.0,65,0.00,,,-99.99,,2013-02-21 10:21:00,
2013-02-21 04:31:00,20.0,10.0,-100.00,East,90,11.0,19.0,65,0.00,,,-99.99,,2013-02-21 10:31:00,
2013-02-21 04:41:00,20.0,10.0,-100.00,East,90,11.0,19.0,65,0.00,,,-99.99,,2013-02-21 10:41:00,
2013-02-21 04:51:00,20.0,10.0,-100.00,ESE,105,11.0,17.0,65,0.00,,,-99.99,,2013-02-21 10:51:00,
2013-02-21 05:01:00,20.0,10.0,-100.00,ESE,105,11.0,17.0,65,0.00,,,-99.99,,2013-02-21 11:01:00,
2013-02-21 05:11:00,20.0,10.0,-100.00,East,95,11.0,17.0,65,0.00,,,-99.99,,2013-02-21 11:11:00,
2013-02-21 05:21:00,20.0,10.0,-100.00,East,85,12.0,21.0,66,0.00,,,-99.99,,2013-02-21 11:21:00,
2013-02-21 05:31:00,19.0,10.0,-100.00,East,100,12.0,21.0,66,0.00,,,-99.99,,2013-02-21 11:31:00,
2013-02-21 05:41:00,19.0,10.0,-100.00,East,100,12.0,21.0,66,0.00,,,-99.99,,2013-02-21 11:41:00,
2013-02-21 05:51:00,19.0,10.0,-100.00,East,85,10.0,15.0,67,0.00,,,-99.99,,2013-02-21 11:51:00,
2013-02-21 06:01:00,19.0,10.0,-100.00,East,85,10.0,15.0,67,0.00,,,-99.99,,2013-02-21 12:01:00,
2013-02-21 06:11:00,19.0,10.0,-100.00,East,90,14.0,18.0,67,0.00,,,-99.99,,2013-02-21 12:11:00,
2013-02-21 06:21:00,19.0,10.0,-100.00,East,95,12.0,19.0,67,0.00,,,-99.99,,2013-02-21 12:21:00,
2013-02-21 06:32:00,19.0,10.0,-100.00,East,90,11.0,19.0,68,0.00,,,-99.99,,2013-02-21 12:32:00,
2013-02-21 06:42:00,19.0,10.0,-100.00,East,80,16.0,21.0,68,0.00,,,-99.99,,2013-02-21 12:42:00,
2013-02-21 06:52:00,19.0,10.0,-100.00,East,85,13.0,17.0,68,0.00,,,-99.99,,2013-02-21 12:52:00,
2013-02-21 07:01:00,19.0,10.0,-100.00,East,85,13.0,17.0,68,0.00,,,-99.99,,2013-02-21 13:01:00,
2013-02-21 07:12:00,19.0,11.0,-100.00,East,80,13.0,18.0,69,0.00,,,-99.99,,2013-02-21 13:12:00,
2013-02-21 07:22:00,19.0,11.0,-100.00,ENE,75,11.0,18.0,69,0.00,,,-99.99,,2013-02-21 13:22:00,
2013-02-21 07:32:00,19.0,11.0,-100.00,East,95,10.0,16.0,69,0.00,,,-99.99,,2013-02-21 13:32:00,
2013-02-21 07:41:00,19.0,11.0,-100.00,ENE,75,11.0,16.0,69,0.00,,,-99.99,,2013-02-21 13:41:00,
2013-02-21 07:51:00,19.0,11.0,-100.00,East,85,14.0,19.0,69,0.00,,,-99.99,,2013-02-21 13:51:00,
2013-02-21 08:02:00,19.0,11.0,-100.00,East,85,14.0,19.0,69,0.00,,,-99.99,,2013-02-21 14:02:00,
2013-02-21 08:11:00,19.0,11.0,-100.00,East,80,11.0,17.0,69,0.00,,,-99.99,,2013-02-21 14:11:00,
2013-02-21 08:21:00,20.0,11.0,-100.00,East,85,9.0,17.0,69,0.00,,,-99.99,,2013-02-21 14:21:00,
2013-02-21 08:32:00,20.0,11.0,-100.00,East,90,11.0,19.0,69,0.00,,,-99.99,,2013-02-21 14:32:00,
2013-02-21 08:41:00,20.0,12.0,-100.00,ENE,75,12.0,20.0,70,0.00,,,-99.99,,2013-02-21 14:41:00,
2013-02-21 08:52:00,20.0,12.0,-100.00,East,85,11.0,21.0,70,0.00,,,-99.99,,2013-02-21 14:52:00,
2013-02-21 09:01:00,20.0,12.0,-100.00,East,85,11.0,21.0,70,0.00,,,-99.99,,2013-02-21 15:01:00,
2013-02-21 09:12:00,20.0,12.0,-100.00,East,95,14.0,18.0,70,0.00,,,-99.99,,2013-02-21 15:12:00,
2013-02-21 09:21:00,20.0,12.0,-100.00,East,85,14.0,21.0,69,0.00,,,-99.99,,2013-02-21 15:21:00,
2013-02-21 09:32:00,20.0,12.0,-100.00,East,90,16.0,21.0,69,0.00,,,-99.99,,2013-02-21 15:32:00,
2013-02-21 09:42:00,20.0,12.0,-100.00,East,95,15.0,19.0,70,0.00,,,-99.99,,2013-02-21 15:42:00,
2013-02-21 09:51:00,20.0,12.0,-100.00,ENE,75,12.0,20.0,69,0.00,,,-99.99,,2013-02-21 15:51:00,
2013-02-21 10:01:00,20.0,12.0,-100.00,ENE,75,12.0,20.0,69,0.00,,,-99.99,,2013-02-21 16:01:00,
2013-02-21 10:12:00,20.0,12.0,-100.00,East,85,14.0,20.0,69,0.00,,,-99.99,,2013-02-21 16:12:00,
2013-02-21 10:21:00,21.0,12.0,-100.00,East,80,15.0,22.0,69,0.00,,,-99.99,,2013-02-21 16:21:00,
2013-02-21 10:32:00,21.0,12.0,-100.00,ENE,75,16.0,23.0,68,0.00,,,-99.99,,2013-02-21 16:32:00,
2013-02-21 10:42:00,21.0,12.0,-100.00,East,85,17.0,24.0,66,0.00,,,-99.99,,2013-02-21 16:42:00,
2013-02-21 10:52:00,22.0,11.0,-100.00,East,80,19.0,26.0,64,0.00,,,-99.99,,2013-02-21 16:52:00,
2013-02-21 11:01:00,22.0,11.0,-100.00,East,80,19.0,26.0,64,0.00,,,-99.99,,2013-02-21 17:01:00,
2013-02-21 11:11:00,22.0,11.0,-100.00,East,90,17.0,26.0,63,0.00,,,-99.99,,2013-02-21 17:11:00,
2013-02-21 11:21:00,22.0,11.0,-100.00,East,80,18.0,26.0,63,0.00,,,-99.99,,2013-02-21 17:21:00,
2013-02-21 11:32:00,21.0,12.0,-100.00,ENE,75,19.0,25.0,67,0.00,,,-99.99,,2013-02-21 17:32:00,
2013-02-21 11:42:00,20.0,13.0,-100.00,East,80,16.0,24.0,73,0.00,,,-99.99,,2013-02-21 17:42:00,
2013-02-21 11:52:00,20.0,14.0,-100.00,East,85,17.0,25.0,77,0.00,,,-99.99,,2013-02-21 17:52:00,
2013-02-21 12:02:00,20.0,14.0,-100.00,East,85,17.0,25.0,77,0.00,,,-99.99,,2013-02-21 18:02:00,
2013-02-21 12:11:00,20.0,15.0,-100.00,East,80,16.0,27.0,81,0.01,,,-99.99,,2013-02-21 18:11:00,
2013-02-21 12:22:00,20.0,16.0,-100.00,ENE,75,17.0,27.0,82,0.00,,,-99.99,,2013-02-21 18:22:00,
2013-02-21 12:31:00,20.0,16.0,-100.00,East,80,15.0,24.0,84,0.01,,,-99.99,,2013-02-21 18:31:00,
2013-02-21 12:42:00,20.0,17.0,-100.00,East,85,17.0,27.0,85,0.00,,,-99.99,,2013-02-21 18:42:00,
2013-02-21 12:51:00,20.0,17.0,-100.00,ENE,65,17.0,24.0,86,0.01,,,-99.99,,2013-02-21 18:51:00,
2013-02-21 13:01:00,20.0,17.0,-100.00,ENE,65,17.0,24.0,86,0.01,,,-99.99,,2013-02-21 19:01:00,
2013-02-21 13:12:00,21.0,18.0,-100.00,East,80,14.0,24.0,88,0.03,,,-99.99,,2013-02-21 19:12:00,
2013-02-21 13:21:00,20.0,18.0,-100.00,East,80,19.0,27.0,88,0.01,,,-99.99,,2013-02-21 19:21:00,
2013-02-21 13:31:00,20.0,18.0,-100.00,East,80,16.0,27.0,89,0.03,,,-99.99,,2013-02-21 19:31:00,
2013-02-21 13:41:00,21.0,18.0,-100.00,ENE,75,17.0,26.0,90,0.08,,,-99.99,,2013-02-21 19:41:00,
2013-02-21 13:51:00,20.0,18.0,-100.00,East,85,21.0,26.0,91,0.04,,,-99.99,,2013-02-21 19:51:00,
2013-02-21 14:01:00,20.0,18.0,-100.00,East,85,21.0,26.0,91,0.04,,,-99.99,,2013-02-21 20:01:00,
2013-02-21 14:11:00,21.0,19.0,-100.00,ENE,75,21.0,30.0,92,0.03,,,-99.99,,2013-02-21 20:11:00,
2013-02-21 14:21:00,21.0,19.0,-100.00,East,80,17.0,30.0,92,0.03,,,-99.99,,2013-02-21 20:21:00,
2013-02-21 14:32:00,21.0,19.0,-100.00,East,85,19.0,25.0,92,0.06,,,-99.99,,2013-02-21 20:32:00,
2013-02-21 14:41:00,21.0,19.0,-100.00,ENE,75,16.0,27.0,92,0.03,,,-99.99,,2013-02-21 20:41:00,
2013-02-21 14:52:00,21.0,19.0,-100.00,ENE,75,17.0,24.0,92,0.01,,,-99.99,,2013-02-21 20:52:00,
2013-02-21 15:02:00,21.0,19.0,-100.00,ENE,75,17.0,24.0,92,0.01,,,-99.99,,2013-02-21 21:02:00,
2013-02-21 15:11:00,21.0,19.0,-100.00,East,85,16.0,24.0,91,0.03,,,-99.99,,2013-02-21 21:11:00,
2013-02-21 15:21:00,21.0,19.0,-100.00,East,85,15.0,24.0,91,0.01,,,-99.99,,2013-02-21 21:21:00,
2013-02-21 15:31:00,22.0,20.0,-100.00,East,80,15.0,26.0,90,0.04,,,-99.99,,2013-02-21 21:31:00,
2013-02-21 15:42:00,22.0,19.0,-100.00,East,85,17.0,26.0,89,0.01,,,-99.99,,2013-02-21 21:42:00,
2013-02-21 15:51:00,22.0,19.0,-100.00,East,90,20.0,26.0,88,0.00,,,-99.99,,2013-02-21 21:51:00,
2013-02-21 16:01:00,22.0,19.0,-100.00,East,90,20.0,26.0,88,0.00,,,-99.99,,2013-02-21 22:01:00,
2013-02-21 16:11:00,22.0,19.0,-100.00,ENE,75,18.0,24.0,88,0.00,,,-99.99,,2013-02-21 22:11:00,
2013-02-21 16:21:00,22.0,19.0,-100.00,ENE,75,17.0,24.0,88,0.03,,,-99.99,,2013-02-21 22:21:00,
2013-02-21 16:31:00,22.0,19.0,-100.00,ENE,75,14.0,21.0,88,0.00,,,-99.99,,2013-02-21 22:31:00,
2013-02-21 16:41:00,22.0,19.0,-100.00,East,85,15.0,23.0,88,0.00,,,-99.99,,2013-02-21 22:41:00,
2013-02-21 16:52:00,22.0,20.0,-100.00,East,80,12.0,22.0,89,0.00,,,-99.99,,2013-02-21 22:52:00,
2013-02-21 17:01:00,22.0,20.0,-100.00,East,80,12.0,22.0,89,0.00,,,-99.99,,2013-02-21 23:01:00,
2013-02-21 17:11:00,22.0,20.0,-100.00,East,90,12.0,19.0,90,0.00,,,-99.99,,2013-02-21 23:11:00,
2013-02-21 17:21:00,22.0,20.0,-100.00,East,90,15.0,21.0,90,0.00,,,-99.99,,2013-02-21 23:21:00,
2013-02-21 17:32:00,22.0,20.0,-100.00,East,80,12.0,21.0,90,0.00,,,-99.99,,2013-02-21 23:32:00,
2013-02-21 17:41:00,22.0,20.0,-100.00,East,85,12.0,21.0,90,0.00,,,-99.99,,2013-02-21 23:41:00,
2013-02-21 17:52:00,23.0,20.0,-100.00,East,95,10.0,15.0,90,0.01,,,-99.99,,2013-02-21 23:52:00,
2013-02-21 18:01:00,23.0,20.0,-100.00,East,95,10.0,15.0,90,0.01,,,-99.99,,2013-02-22 00:01:00,
2013-02-21 18:11:00,23.0,20.0,-100.00,East,80,9.0,16.0,90,0.00,,,-99.99,,2013-02-22 00:11:00,
2013-02-21 18:21:00,23.0,20.0,-100.00,ENE,75,12.0,17.0,90,0.01,,,-99.99,,2013-02-22 00:21:00,
2013-02-21 18:32:00,23.0,21.0,-100.00,ENE,75,12.0,18.0,90,0.01,,,-99.99,,2013-02-22 00:32:00,
2013-02-21 18:41:00,23.0,21.0,-100.00,ENE,75,12.0,18.0,90,0.01,,,-99.99,,2013-02-22 00:41:00,
2013-02-21 18:51:00,23.0,21.0,-100.00,ENE,60,9.0,13.0,91,0.01,,,-99.99,,2013-02-22 00:51:00,
2013-02-21 19:01:00,23.0,21.0,-100.00,ENE,60,9.0,13.0,91,0.01,,,-99.99,,2013-02-22 01:01:00,
2013-02-21 19:11:00,23.0,21.0,-100.00,ENE,60,9.0,13.0,91,0.01,,,-99.99,,2013-02-22 01:11:00,
2013-02-21 19:21:00,23.0,21.0,-100.00,East,80,9.0,12.0,91,0.04,,,-99.99,,2013-02-22 01:21:00,
2013-02-21 19:32:00,23.0,21.0,-100.00,NE,55,4.0,7.0,92,0.08,,,-99.99,,2013-02-22 01:32:00,
2013-02-21 19:42:00,23.0,21.0,-100.00,NE,55,4.0,7.0,92,0.08,,,-99.99,,2013-02-22 01:42:00,
2013-02-21 19:51:00,23.0,21.0,-100.00,NE,50,6.0,9.0,92,0.13,,,-99.99,,2013-02-22 01:51:00,
2013-02-21 20:02:00,23.0,21.0,-100.00,NE,50,6.0,9.0,92,0.13,,,-99.99,,2013-02-22 02:02:00,
2013-02-21 20:11:00,23.0,22.0,-100.00,NE,55,6.0,9.0,92,0.03,,,-99.99,,2013-02-22 02:11:00,
2013-02-21 20:21:00,24.0,22.0,-100.00,NE,55,7.0,9.0,92,0.11,,,-99.99,,2013-02-22 02:21:00,
2013-02-21 20:31:00,24.0,22.0,-100.00,NE,50,6.0,9.0,92,0.00,,,-99.99,,2013-02-22 02:31:00,
2013-02-21 20:42:00,24.0,22.0,-100.00,NE,50,6.0,9.0,92,0.00,,,-99.99,,2013-02-22 02:42:00,
2013-02-21 20:52:00,24.0,22.0,-100.00,NE,50,7.0,11.0,92,0.07,,,-99.99,,2013-02-22 02:52:00,
2013-02-21 21:01:00,24.0,22.0,-100.00,NE,50,7.0,11.0,92,0.07,,,-99.99,,2013-02-22 03:01:00,
2013-02-21 21:11:00,24.0,22.0,-100.00,NE,55,9.0,12.0,92,0.01,,,-99.99,,2013-02-22 03:11:00,
2013-02-21 21:21:00,24.0,22.0,-100.00,NE,50,7.0,12.0,92,0.00,,,-99.99,,2013-02-22 03:21:00,
2013-02-21 21:32:00,24.0,22.0,-100.00,ENE,60,7.0,12.0,92,0.08,,,-99.99,,2013-02-22 03:32:00,
2013-02-21 21:41:00,24.0,22.0,-100.00,ENE,60,7.0,12.0,92,0.08,,,-99.99,,2013-02-22 03:41:00,
2013-02-21 21:51:00,24.0,22.0,-100.00,NE,50,6.0,9.0,92,0.45,,,-99.99,,2013-02-22 03:51:00,
2013-02-21 22:01:00,24.0,22.0,-100.00,NE,50,6.0,9.0,92,0.45,,,-99.99,,2013-02-22 04:01:00,
2013-02-21 22:11:00,24.0,22.0,-100.00,NE,35,5.0,11.0,92,0.43,,,-99.99,,2013-02-22 04:11:00,
2013-02-21 22:21:00,24.0,22.0,-100.00,NE,35,6.0,8.0,92,0.23,,,-99.99,,2013-02-22 04:21:00,
2013-02-21 22:32:00,24.0,22.0,-100.00,NE,55,6.0,10.0,92,0.23,,,-99.99,,2013-02-22 04:32:00,
2013-02-21 22:42:00,24.0,22.0,-100.00,NE,55,6.0,10.0,92,0.23,,,-99.99,,2013-02-22 04:42:00,
2013-02-21 22:51:00,24.0,22.0,-100.00,NE,55,7.0,11.0,92,0.04,,,-99.99,,2013-02-22 04:51:00,
2013-02-21 23:01:00,24.0,22.0,-100.00,NE,55,7.0,11.0,92,0.04,,,-99.99,,2013-02-22 05:01:00,
2013-02-21 23:12:00,24.0,22.0,-100.00,ENE,65,7.0,11.0,92,0.01,,,-99.99,,2013-02-22 05:12:00,
2013-02-21 23:22:00,24.0,22.0,-100.00,ENE,60,7.0,11.0,92,0.00,,,-99.99,,2013-02-22 05:22:00,
2013-02-21 23:32:00,24.0,22.0,-100.00,NE,55,8.0,11.0,92,0.01,,,-99.99,,2013-02-22 05:32:00,
2013-02-21 23:41:00,24.0,22.0,-100.00,NE,55,8.0,11.0,92,0.01,,,-99.99,,2013-02-22 05:41:00,
2013-02-21 23:52:00,24.0,23.0,-100.00,ENE,60,7.0,9.0,92,0.00,,,-99.99,,2013-02-22 05:52:00,